Home > Weather > Mayen > Past weeks

Flag for Germany Past Weather in Mayen, Rhineland-Palatinate, Germany — Yesterday and Last 2 Weeks

Now
46 °F

Cool.


Feels Like: 44 °F
Forecast: 54 / 70 °F
Wind: 5 mph from East

Location: Buechel

Current Time: May 26, 2016 at 6:53:15 AM

Latest Report: May 26, 2016 at 6:20 AM


Visibility: 2 mi

Pressure: 30.01 "Hg

Humidity: 100%

Dew Point: 46 °F

Location of MayenLocation

Past Weather in Mayen — Graph

°F

Mayen Temperature Yesterday

Maximum temperature yesterday: 55 °F (at 6:00 PM)
Minimum temperature yesterday: 46 °F (at 12:20 AM)
Average temperature yesterday: 51 °F

High & Low Weather Summary for the Past Weeks

 TemperatureHumidityPressure
High68 °F (May 11, 3:20 PM)100% (May 11, 8:00 AM)30.12 "Hg (May 11, 8:00 AM)
Low36 °F (May 15, 4:20 AM)47% (May 17, 12:20 PM)29.50 "Hg (May 12, 7:20 AM)
Average52 °F77%29.89 "Hg
* Reported May 11 5:20 AM — May 26 5:20 AM, Mayen, Weather by CustomWeather, © 2016

Note: Actual official high and low records may vary slightly from our data, if they occured in-between our weather recording intervals... More about our weather records

Advertising

Mayen Weather History for the Previous 24 Hours

Scroll right to see more
 ConditionsComfort  
Time TempWeatherWind HumidityBarometerVisibility
5:20 AM
Thu, May 26
46 °FCool.3 mph100%30.01 "Hg3 mi
4:20 AM46 °FCool.3 mph100%30.01 "Hg1 mi
3:20 AM48 °FCool.3 mph94%30.01 "Hg1 mi
2:20 AM48 °FCool.3 mph94%30.01 "Hg1 mi
1:20 AM48 °FCool.5 mph94%30.01 "Hg3 mi
12:20 AM50 °FCool.5 mph94%30.01 "Hg4 mi
11:20 PM
Wed, May 25
52 °FCool.6 mph88%30.01 "Hg4 mi
10:20 PM52 °FCool.5 mph88%30.01 "Hg4 mi
9:20 PM52 °FCool.3 mph88%29.98 "HgN/A
8:20 PM54 °FCool.5 mph82%29.98 "HgN/A
7:20 PM55 °FCool.5 mph77%29.98 "HgN/A
6:20 PM55 °FCool.5 mph72%29.98 "HgN/A
6:00 PM55 °FPartly sunny.3 mph72%29.98 "HgN/A
5:20 PM54 °FBroken clouds.5 mph82%29.98 "HgN/A
4:20 PM54 °FBroken clouds.6 mph77%29.98 "HgN/A
3:20 PM54 °FBroken clouds.5 mph82%29.98 "HgN/A
2:20 PM54 °FBroken clouds.6 mph77%29.98 "HgN/A
1:20 PM54 °FPartly sunny.5 mph77%29.98 "HgN/A
12:20 PM52 °FPartly sunny.2 mph77%29.98 "HgN/A
11:20 AM52 °FPartly sunny.5 mph82%29.98 "Hg4 mi
10:20 AM50 °FPartly sunny.5 mph82%29.98 "Hg4 mi
9:20 AM48 °FFog.5 mph87%29.98 "Hg3 mi
8:20 AM48 °FFog.2 mph87%29.98 "Hg2 mi
7:20 AM46 °FFog.3 mph93%29.98 "Hg2 mi
Weather by CustomWeather, © 2016

See weather overviewHow to use our weather pages